Location: Lovettville
(53.0333°N, 116.6833°W)
Time: 06:55:24
(UTC+00:00)

BlueWalker 3 - Visible Passes

Search period start: 05 June 2023 00:00
Search period end: 15 June 2023 00:00
Orbit: 494 x 513 km, 53.2° (Epoch: 04 June)

Date Brightness Start Highest point End Pass type
(mag) Time Alt. Az. Time Alt. Az. Time Alt. Az.
05 Jun 2.0 04:56:09 10° W 05:00:01 88° N 05:03:54 10° E visible
05 Jun 1.8 06:34:42 10° W 06:38:34 75° SSW 06:42:27 10° ESE visible
05 Jun 2.9 08:13:25 10° W 08:16:45 27° SW 08:17:27 26° SSW visible
06 Jun 1.8 06:14:17 10° W 06:18:09 74° SSW 06:22:02 10° ESE visible
06 Jun 2.9 07:53:01 10° W 07:56:20 27° SW 07:56:57 26° SSW visible
07 Jun 1.9 05:53:52 10° W 05:57:43 73° SSW 06:01:36 10° ESE visible
07 Jun 3.0 07:32:37 10° W 07:35:54 26° SW 07:36:36 25° SSW visible
08 Jun 1.9 05:33:26 10° W 05:37:17 73° SSW 05:41:10 10° ESE visible
08 Jun 3.1 07:12:11 10° W 07:15:26 26° SW 07:16:21 23° SSW visible
09 Jun 1.9 05:12:59 10° W 05:16:51 72° SSW 05:20:42 10° ESE visible
09 Jun 3.2 06:51:45 10° W 06:54:59 25° SW 06:56:11 22° S visible
10 Jun 3.2 06:31:19 10° W 06:34:31 25° SW 06:36:04 19° S visible
11 Jun 3.3 06:10:52 10° W 06:14:02 24° SW 06:16:00 17° S visible
12 Jun 3.4 05:50:24 10° W 05:53:33 24° SW 05:55:58 14° S visible
13 Jun 3.4 05:29:55 10° W 05:33:02 23° SW 05:35:58 11° SSE visible
14 Jun 3.5 05:09:26 10° W 05:12:31 23° SW 05:15:36 10° SSE visible
